User: anonymous   Login
Location: Unspecified
(0.0000°N, 0.0000°E)
Time: 02:44:54
(UTC+01:00)
Language:

Iridium 19 - Orbit

View from above orbital plane
View from above orbital plane
View from above satellite
View from above satellite

Ground track
Ground track

The orbit data is extracted from the following two-line orbital elements,

1 24965U 97056A   18022.19939074  .00224710 -11764-5  62350-3 0  9998
2 24965  86.3879 223.2137 0279211 352.0601   7.6278 15.52009001 64472
Epoch (UTC): 22 January 2018 04:47:07
Eccentricity: 0.0279211
inclination: 86.3879°
perigee height: 221 km
apogee height: 600 km
right ascension of ascending node: 223.2137°
argument of perigee: 352.0601°
revolutions per day: 15.52009001
mean anomaly at epoch: 7.6278°
orbit number at epoch: 6447

The dashed part of the orbit path shows where the satellite is in the earth's shadow,  

DLR